Time,TemperatureF,DewpointF,PressureIn,WindDirection,WindDirectionDegrees,WindSpeedMPH,WindSpeedGustMPH,Humidity,HourlyPrecipIn,Conditions,Clouds,dailyrainin,SolarRadiationWatts/m^2,SoftwareType,DateUTC
2017-04-30 00:04:00,61.7,42.4,29.96,WSW,255,2.5,2.5,49,0.00,,,0.00,0.00,Weather logger V3.0.,2017-04-30 04:04:00,
2017-04-30 00:09:00,61.7,42.4,29.96,WSW,239,2.0,2.5,49,0.00,,,0.00,0.00,Weather logger V3.0.,2017-04-30 04:09:00,
2017-04-30 00:14:00,61.7,42.4,29.96,West,277,3.4,4.9,49,0.00,,,0.00,0.00,Weather logger V3.0.,2017-04-30 04:14:00,
2017-04-30 00:19:00,61.7,42.4,29.96,SSW,195,0.0,0.0,49,0.00,,,0.00,0.00,Weather logger V3.0.,2017-04-30 04:19:00,
2017-04-30 00:25:00,61.9,42.6,29.97,NW,311,2.9,4.9,49,0.00,,,0.00,0.00,Weather logger V3.0.,2017-04-30 04:25:00,
2017-04-30 00:30:00,62.1,42.3,29.97,SSW,196,1.1,2.5,48,0.00,,,0.00,0.00,Weather logger V3.0.,2017-04-30 04:30:00,
2017-04-30 00:35:00,62.1,42.3,29.98,NW,310,1.1,2.5,48,0.00,,,0.00,0.00,Weather logger V3.0.,2017-04-30 04:35:00,
2017-04-30 00:40:00,61.9,40.3,29.98,West,265,3.4,4.9,45,0.00,,,0.00,0.00,Weather logger V3.0.,2017-04-30 04:40:00,
2017-04-30 00:45:00,61.9,38.7,29.98,West,274,3.4,4.9,42,0.00,,,0.00,0.00,Weather logger V3.0.,2017-04-30 04:45:00,
2017-04-30 00:50:00,61.7,37.8,29.99,NNW,329,5.1,7.4,41,0.00,,,0.00,0.00,Weather logger V3.0.,2017-04-30 04:50:00,
2017-04-30 00:55:00,61.7,37.2,29.99,West,261,1.1,2.5,40,0.00,,,0.00,0.00,Weather logger V3.0.,2017-04-30 04:55:00,
2017-04-30 01:00:00,61.5,37.6,30.00,SSW,199,0.0,0.0,41,0.00,,,0.00,0.00,Weather logger V3.0.,2017-04-30 05:00:00,
2017-04-30 01:05:00,61.3,37.4,30.00,NW,319,0.4,2.5,41,0.00,,,0.00,0.00,Weather logger V3.0.,2017-04-30 05:05:00,
2017-04-30 01:10:00,61.2,36.7,30.00,West,264,2.0,2.5,40,0.00,,,0.00,0.00,Weather logger V3.0.,2017-04-30 05:10:00,
2017-04-30 01:15:00,60.8,37.0,30.00,WSW,242,1.3,2.5,41,0.00,,,0.00,0.00,Weather logger V3.0.,2017-04-30 05:15:00,
2017-04-30 01:20:00,60.6,36.9,30.00,SW,226,0.0,0.0,41,0.00,,,0.00,0.00,Weather logger V3.0.,2017-04-30 05:20:00,
2017-04-30 01:25:00,60.4,37.2,30.00,ENE,70,0.2,2.5,42,0.00,,,0.00,0.00,Weather logger V3.0.,2017-04-30 05:25:00,
2017-04-30 01:30:00,60.3,36.5,30.01,WSW,247,0.4,2.5,41,0.00,,,0.00,0.00,Weather logger V3.0.,2017-04-30 05:30:00,
2017-04-30 01:35:00,59.9,36.1,30.01,SW,225,0.0,0.0,41,0.00,,,0.00,0.00,Weather logger V3.0.,2017-04-30 05:35:00,
2017-04-30 01:41:00,59.7,36.0,30.02,NNW,344,2.5,4.9,41,0.00,,,0.00,0.00,Weather logger V3.0.,2017-04-30 05:41:00,
2017-04-30 01:46:00,59.5,35.2,30.03,NNW,346,4.0,4.9,40,0.00,,,0.00,0.00,Weather logger V3.0.,2017-04-30 05:46:00,
2017-04-30 01:51:00,59.4,35.8,30.03,SW,235,1.3,2.5,41,0.00,,,0.00,0.00,Weather logger V3.0.,2017-04-30 05:51:00,
2017-04-30 01:56:00,59.2,35.6,30.04,SW,232,0.0,0.0,41,0.00,,,0.00,0.00,Weather logger V3.0.,2017-04-30 05:56:00,
2017-04-30 02:01:00,59.0,35.4,30.04,NNE,32,4.9,4.9,41,0.00,,,0.00,0.00,Weather logger V3.0.,2017-04-30 06:01:00,
2017-04-30 02:06:00,58.8,35.2,30.04,SW,227,0.4,2.5,41,0.00,,,0.00,0.00,Weather logger V3.0.,2017-04-30 06:06:00,
2017-04-30 02:11:00,58.5,34.9,30.03,NNW,343,3.6,4.9,41,0.00,,,0.00,0.00,Weather logger V3.0.,2017-04-30 06:11:00,
2017-04-30 02:16:00,58.3,33.4,30.03,West,261,3.6,4.9,39,0.00,,,0.00,0.00,Weather logger V3.0.,2017-04-30 06:16:00,
2017-04-30 02:21:00,58.1,34.0,30.04,NNW,343,7.6,9.8,40,0.00,,,0.00,0.00,Weather logger V3.0.,2017-04-30 06:21:00,
2017-04-30 02:26:00,57.7,32.9,30.05,South,188,2.9,4.9,39,0.00,,,0.00,0.00,Weather logger V3.0.,2017-04-30 06:26:00,
2017-04-30 02:31:00,57.6,32.9,30.04,WNW,288,5.1,7.4,39,0.00,,,0.00,0.00,Weather logger V3.0.,2017-04-30 06:31:00,
2017-04-30 02:36:00,57.4,32.7,30.04,SW,231,2.5,4.9,39,0.00,,,0.00,0.00,Weather logger V3.0.,2017-04-30 06:36:00,
2017-04-30 02:41:00,57.2,33.1,30.05,South,191,0.4,2.5,40,0.00,,,0.00,0.00,Weather logger V3.0.,2017-04-30 06:41:00,
2017-04-30 02:46:00,57.0,33.6,30.05,WNW,287,1.1,2.5,41,0.00,,,0.00,0.00,Weather logger V3.0.,2017-04-30 06:46:00,
2017-04-30 02:51:00,57.0,34.2,30.05,North,352,4.0,4.9,42,0.00,,,0.00,0.00,Weather logger V3.0.,2017-04-30 06:51:00,
2017-04-30 02:57:00,56.8,34.0,30.06,South,191,0.0,0.0,42,0.00,,,0.00,0.00,Weather logger V3.0.,2017-04-30 06:57:00,
2017-04-30 03:02:00,56.5,33.6,30.06,West,281,2.7,4.9,42,0.00,,,0.00,0.00,Weather logger V3.0.,2017-04-30 07:02:00,
2017-04-30 03:07:00,56.3,33.6,30.06,NNE,14,3.6,4.9,42,0.00,,,0.00,0.00,Weather logger V3.0.,2017-04-30 07:07:00,
2017-04-30 03:12:00,56.1,33.4,30.06,NW,315,6.5,7.4,42,0.00,,,0.00,0.00,Weather logger V3.0.,2017-04-30 07:12:00,
2017-04-30 03:17:00,55.9,33.3,30.06,NW,326,2.9,4.9,42,0.00,,,0.00,0.00,Weather logger V3.0.,2017-04-30 07:17:00,
2017-04-30 03:22:00,55.8,33.1,30.06,SW,230,1.8,4.9,42,0.00,,,0.00,0.00,Weather logger V3.0.,2017-04-30 07:22:00,
2017-04-30 03:27:00,55.6,33.4,30.06,NE,49,4.5,7.4,43,0.00,,,0.00,0.00,Weather logger V3.0.,2017-04-30 07:27:00,
2017-04-30 03:32:00,55.2,33.1,30.07,NNW,332,0.4,2.5,43,0.00,,,0.00,0.00,Weather logger V3.0.,2017-04-30 07:32:00,
2017-04-30 03:33:00,55.2,33.1,30.07,NNE,13,4.5,4.9,43,0.00,,,0.00,0.00,Weather logger V3.0.,2017-04-30 07:33:00,
2017-04-30 03:38:00,54.9,34.0,30.07,NE,53,8.1,9.8,45,0.00,,,0.00,0.00,Weather logger V3.0.,2017-04-30 07:38:00,
2017-04-30 03:43:00,54.3,32.4,30.08,WNW,285,1.1,2.5,43,0.00,,,0.00,0.00,Weather logger V3.0.,2017-04-30 07:43:00,
2017-04-30 03:48:00,54.0,32.5,30.08,NNE,27,4.0,7.4,44,0.00,,,0.00,0.00,Weather logger V3.0.,2017-04-30 07:48:00,
2017-04-30 03:53:00,53.6,32.2,30.08,WNW,287,9.8,12.3,44,0.00,,,0.00,0.00,Weather logger V3.0.,2017-04-30 07:53:00,
2017-04-30 03:58:00,53.1,31.8,30.08,North,6,8.1,9.8,44,0.00,,,0.00,0.00,Weather logger V3.0.,2017-04-30 07:58:00,
2017-04-30 04:03:00,52.7,30.9,30.09,North,358,8.3,9.8,43,0.00,,,0.00,0.00,Weather logger V3.0.,2017-04-30 08:03:00,
2017-04-30 04:09:00,52.5,31.3,30.09,North,359,0.2,2.5,44,0.00,,,0.00,0.00,Weather logger V3.0.,2017-04-30 08:09:00,
2017-04-30 04:14:00,52.2,30.9,30.08,North,359,2.0,4.9,44,0.00,,,0.00,0.00,Weather logger V3.0.,2017-04-30 08:14:00,
2017-04-30 04:19:00,51.8,31.1,30.08,SE,134,1.1,2.5,45,0.00,,,0.00,0.00,Weather logger V3.0.,2017-04-30 08:19:00,
2017-04-30 04:24:00,51.6,30.9,30.08,South,171,2.7,4.9,45,0.00,,,0.00,0.00,Weather logger V3.0.,2017-04-30 08:24:00,
2017-04-30 04:29:00,51.3,30.2,30.09,SE,129,3.6,7.4,44,0.00,,,0.00,0.00,Weather logger V3.0.,2017-04-30 08:29:00,
2017-04-30 04:34:00,50.9,29.3,30.09,North,357,1.8,2.5,43,0.00,,,0.00,0.00,Weather logger V3.0.,2017-04-30 08:34:00,
2017-04-30 04:39:00,50.7,29.1,30.09,NW,322,6.5,7.4,43,0.00,,,0.00,0.00,Weather logger V3.0.,2017-04-30 08:39:00,
2017-04-30 04:44:00,50.5,28.9,30.09,South,175,0.4,2.5,43,0.00,,,0.00,0.00,Weather logger V3.0.,2017-04-30 08:44:00,
2017-04-30 04:49:00,50.4,29.3,30.09,North,10,4.2,4.9,44,0.00,,,0.00,0.00,Weather logger V3.0.,2017-04-30 08:49:00,
2017-04-30 04:54:00,50.2,29.7,30.09,East,98,2.7,4.9,45,0.00,,,0.00,0.00,Weather logger V3.0.,2017-04-30 08:54:00,
2017-04-30 04:59:00,49.8,28.8,30.10,NE,42,1.3,2.5,44,0.00,,,0.00,0.00,Weather logger V3.0.,2017-04-30 08:59:00,
2017-04-30 05:04:00,49.6,28.0,30.10,NNW,342,7.6,9.8,43,0.00,,,0.00,0.00,Weather logger V3.0.,2017-04-30 09:04:00,
2017-04-30 05:09:00,49.5,27.9,30.10,SSE,151,2.0,4.9,43,0.00,,,0.00,0.00,Weather logger V3.0.,2017-04-30 09:09:00,
2017-04-30 05:14:00,49.3,28.4,30.10,SE,141,2.0,2.5,44,0.00,,,0.00,0.00,Weather logger V3.0.,2017-04-30 09:14:00,
2017-04-30 05:19:00,48.9,28.0,30.10,NE,34,2.5,4.9,44,0.00,,,0.00,0.00,Weather logger V3.0.,2017-04-30 09:19:00,
2017-04-30 05:25:00,48.6,28.2,30.11,SSE,168,0.0,0.0,45,0.00,,,0.00,0.00,Weather logger V3.0.,2017-04-30 09:25:00,
2017-04-30 05:30:00,48.2,27.9,30.11,SSW,194,0.0,0.0,45,0.00,,,0.00,0.00,Weather logger V3.0.,2017-04-30 09:30:00,
2017-04-30 05:35:00,47.8,27.5,30.12,SE,124,3.6,4.9,45,0.00,,,0.00,0.00,Weather logger V3.0.,2017-04-30 09:35:00,
2017-04-30 05:40:00,47.7,27.3,30.12,NNW,330,2.7,4.9,45,0.00,,,0.00,0.53,Weather logger V3.0.,2017-04-30 09:40:00,
2017-04-30 05:45:00,47.5,26.6,30.11,SE,127,1.1,2.5,44,0.00,,,0.00,4.83,Weather logger V3.0.,2017-04-30 09:45:00,
2017-04-30 05:50:00,47.3,27.1,30.11,NE,39,0.9,2.5,45,0.00,,,0.00,10.01,Weather logger V3.0.,2017-04-30 09:50:00,
2017-04-30 05:55:00,47.1,27.0,30.13,South,177,0.0,0.0,45,0.00,,,0.00,18.11,Weather logger V3.0.,2017-04-30 09:55:00,
2017-04-30 06:00:00,47.1,27.0,30.11,NE,44,4.9,7.4,45,0.00,,,0.00,24.91,Weather logger V3.0.,2017-04-30 10:00:00,
2017-04-30 06:05:00,46.9,26.8,30.12,SSE,157,4.5,7.4,45,0.00,,,0.00,33.54,Weather logger V3.0.,2017-04-30 10:05:00,
2017-04-30 06:10:00,46.9,26.8,30.14,North,352,5.8,9.8,45,0.00,,,0.00,43.75,Weather logger V3.0.,2017-04-30 10:10:00,
2017-04-30 06:15:00,46.8,26.1,30.15,SE,136,1.1,2.5,44,0.00,,,0.00,52.76,Weather logger V3.0.,2017-04-30 10:15:00,
2017-04-30 06:20:00,46.8,26.1,30.14,South,185,0.0,0.0,44,0.00,,,0.00,58.91,Weather logger V3.0.,2017-04-30 10:20:00,
2017-04-30 06:25:00,46.8,25.5,30.15,NW,314,2.0,4.9,43,0.00,,,0.00,61.50,Weather logger V3.0.,2017-04-30 10:25:00,
2017-04-30 06:30:00,46.8,25.5,30.15,NE,39,4.0,4.9,43,0.00,,,0.00,62.04,Weather logger V3.0.,2017-04-30 10:30:00,
2017-04-30 06:35:00,46.9,25.7,30.15,SE,141,2.7,4.9,43,0.00,,,0.00,65.06,Weather logger V3.0.,2017-04-30 10:35:00,
2017-04-30 06:41:00,46.9,25.7,30.16,NNE,21,2.0,2.5,43,0.00,,,0.00,68.88,Weather logger V3.0.,2017-04-30 10:41:00,
2017-04-30 06:46:00,47.1,25.2,30.16,NNW,328,5.6,7.4,42,0.00,,,0.00,72.48,Weather logger V3.0.,2017-04-30 10:46:00,
2017-04-30 06:51:00,47.1,24.6,30.16,WSW,257,2.7,4.9,41,0.00,,,0.00,76.35,Weather logger V3.0.,2017-04-30 10:51:00,
2017-04-30 06:56:00,47.1,24.1,30.16,NNW,329,2.5,4.9,40,0.00,,,0.00,79.81,Weather logger V3.0.,2017-04-30 10:56:00,
2017-04-30 07:01:00,47.1,24.6,30.17,WNW,285,0.9,2.5,41,0.00,,,0.00,84.46,Weather logger V3.0.,2017-04-30 11:01:00,
2017-04-30 07:06:00,47.1,24.1,30.17,NNW,338,4.5,4.9,40,0.00,,,0.00,88.04,Weather logger V3.0.,2017-04-30 11:06:00,
2017-04-30 07:11:00,47.1,24.6,30.17,ENE,78,2.7,4.9,41,0.00,,,0.00,92.79,Weather logger V3.0.,2017-04-30 11:11:00,
2017-04-30 07:16:00,47.1,24.1,30.17,West,264,6.7,7.4,40,0.00,,,0.00,98.07,Weather logger V3.0.,2017-04-30 11:16:00,
2017-04-30 07:21:00,47.1,24.1,30.17,SE,137,0.2,2.5,40,0.00,,,0.00,103.25,Weather logger V3.0.,2017-04-30 11:21:00,
2017-04-30 07:26:00,47.3,24.3,30.18,SSE,150,0.0,0.0,40,0.00,,,0.00,108.25,Weather logger V3.0.,2017-04-30 11:26:00,
2017-04-30 07:31:00,47.5,23.7,30.18,North,354,2.7,4.9,39,0.00,,,0.00,114.99,Weather logger V3.0.,2017-04-30 11:31:00,
2017-04-30 07:36:00,47.7,23.4,30.18,NNE,24,2.0,2.5,38,0.00,,,0.00,122.12,Weather logger V3.0.,2017-04-30 11:36:00,
2017-04-30 07:41:00,48.0,23.7,30.18,NE,44,4.5,7.4,38,0.00,,,0.00,130.90,Weather logger V3.0.,2017-04-30 11:41:00,
2017-04-30 07:46:00,48.2,23.7,30.18,SSW,194,0.0,0.0,38,0.00,,,0.00,142.19,Weather logger V3.0.,2017-04-30 11:46:00,
2017-04-30 07:51:00,48.4,23.9,30.19,East,88,4.9,7.4,38,0.00,,,0.00,158.96,Weather logger V3.0.,2017-04-30 11:51:00,
2017-04-30 07:57:00,48.7,23.7,30.19,SW,224,1.3,2.5,37,0.00,,,0.00,179.98,Weather logger V3.0.,2017-04-30 11:57:00,
2017-04-30 08:02:00,49.1,23.4,30.19,North,3,2.0,4.9,36,0.00,,,0.00,208.39,Weather logger V3.0.,2017-04-30 12:02:00,
2017-04-30 08:07:00,49.3,23.5,30.20,NNW,343,4.9,7.4,36,0.00,,,0.00,220.24,Weather logger V3.0.,2017-04-30 12:07:00,
2017-04-30 08:12:00,49.5,23.7,30.19,NNW,342,0.0,0.0,36,0.00,,,0.00,179.88,Weather logger V3.0.,2017-04-30 12:12:00,
2017-04-30 08:17:00,49.6,24.4,30.20,NE,36,2.5,4.9,37,0.00,,,0.00,157.55,Weather logger V3.0.,2017-04-30 12:17:00,
2017-04-30 08:22:00,49.6,24.4,30.20,East,91,1.8,4.9,37,0.00,,,0.00,152.25,Weather logger V3.0.,2017-04-30 12:22:00,
2017-04-30 08:27:00,49.6,25.2,30.20,NE,47,4.0,4.9,38,0.00,,,0.00,213.27,Weather logger V3.0.,2017-04-30 12:27:00,
2017-04-30 08:32:00,49.6,23.7,30.20,North,358,3.4,4.9,36,0.00,,,0.00,224.15,Weather logger V3.0.,2017-04-30 12:32:00,
2017-04-30 08:37:00,49.6,24.4,30.20,North,352,7.4,9.8,37,0.00,,,0.00,179.45,Weather logger V3.0.,2017-04-30 12:37:00,
2017-04-30 08:42:00,49.6,24.4,30.20,West,277,0.2,2.5,37,0.00,,,0.00,245.44,Weather logger V3.0.,2017-04-30 12:42:00,
2017-04-30 08:47:00,49.8,23.9,30.19,SE,124,1.8,2.5,36,0.00,,,0.00,265.80,Weather logger V3.0.,2017-04-30 12:47:00,
2017-04-30 08:52:00,50.0,23.4,30.19,South,186,0.0,0.0,35,0.00,,,0.00,302.19,Weather logger V3.0.,2017-04-30 12:52:00,
2017-04-30 08:57:00,50.4,23.0,30.20,WNW,283,5.6,7.4,34,0.00,,,0.00,324.37,Weather logger V3.0.,2017-04-30 12:57:00,
2017-04-30 08:59:00,50.4,23.0,30.19,West,265,4.5,7.4,34,0.00,,,0.00,324.60,Weather logger V3.0.,2017-04-30 12:59:00,
2017-04-30 09:04:00,50.4,23.7,30.20,WNW,289,4.0,7.4,35,0.00,,,0.00,200.79,Weather logger V3.0.,2017-04-30 13:04:00,
2017-04-30 09:09:00,50.4,23.7,30.20,WSW,237,1.1,2.5,35,0.00,,,0.00,320.35,Weather logger V3.0.,2017-04-30 13:09:00,
2017-04-30 09:14:00,50.5,22.5,30.20,WSW,245,3.4,4.9,33,0.00,,,0.00,351.55,Weather logger V3.0.,2017-04-30 13:14:00,
2017-04-30 09:19:00,51.1,23.0,30.19,SE,131,0.0,0.0,33,0.00,,,0.00,387.71,Weather logger V3.0.,2017-04-30 13:19:00,
2017-04-30 09:24:00,51.3,24.6,30.19,NNE,22,2.7,4.9,35,0.00,,,0.00,389.28,Weather logger V3.0.,2017-04-30 13:24:00,
2017-04-30 09:29:00,51.6,25.5,30.19,ENE,73,3.6,4.9,36,0.00,,,0.00,229.81,Weather logger V3.0.,2017-04-30 13:29:00,
2017-04-30 09:34:00,51.8,25.0,30.19,South,191,0.0,0.0,35,0.00,,,0.00,298.73,Weather logger V3.0.,2017-04-30 13:34:00,
2017-04-30 09:39:00,52.2,25.3,30.18,SSE,158,2.5,4.9,35,0.00,,,0.00,177.17,Weather logger V3.0.,2017-04-30 13:39:00,
2017-04-30 09:44:00,52.2,25.3,30.18,ENE,77,4.2,4.9,35,0.00,,,0.00,213.14,Weather logger V3.0.,2017-04-30 13:44:00,
2017-04-30 09:49:00,51.8,25.7,30.19,North,0,1.3,2.5,36,0.00,,,0.00,285.68,Weather logger V3.0.,2017-04-30 13:49:00,
2017-04-30 09:54:00,51.6,24.8,30.18,ENE,72,5.6,7.4,35,0.00,,,0.00,438.33,Weather logger V3.0.,2017-04-30 13:54:00,
2017-04-30 09:59:00,51.8,23.7,30.18,WSW,253,0.0,0.0,33,0.00,,,0.00,385.29,Weather logger V3.0.,2017-04-30 13:59:00,
2017-04-30 10:05:00,52.2,23.9,30.18,NW,311,2.0,2.5,33,0.00,,,0.00,472.47,Weather logger V3.0.,2017-04-30 14:05:00,
2017-04-30 10:10:00,52.5,25.0,30.18,SW,226,0.0,0.0,34,0.00,,,0.00,405.39,Weather logger V3.0.,2017-04-30 14:10:00,
2017-04-30 10:15:00,53.1,25.5,30.18,ESE,105,0.4,2.5,34,0.00,,,0.00,373.14,Weather logger V3.0.,2017-04-30 14:15:00,
2017-04-30 10:20:00,53.6,25.9,30.18,SSW,197,0.0,0.0,34,0.00,,,0.00,461.54,Weather logger V3.0.,2017-04-30 14:20:00,
2017-04-30 10:25:00,54.0,26.2,30.17,SSW,197,3.6,4.9,34,0.00,,,0.00,496.11,Weather logger V3.0.,2017-04-30 14:25:00,
2017-04-30 10:30:00,54.5,24.4,30.18,WSW,239,0.4,2.5,31,0.00,,,0.00,493.44,Weather logger V3.0.,2017-04-30 14:30:00,
2017-04-30 10:35:00,54.7,27.0,30.18,NW,314,3.6,4.9,34,0.00,,,0.00,485.53,Weather logger V3.0.,2017-04-30 14:35:00,
2017-04-30 10:40:00,54.7,26.2,30.18,NE,50,1.8,2.5,33,0.00,,,0.00,515.91,Weather logger V3.0.,2017-04-30 14:40:00,
2017-04-30 10:45:00,54.7,26.2,30.18,NNW,345,7.6,9.8,33,0.00,,,0.00,528.92,Weather logger V3.0.,2017-04-30 14:45:00,
2017-04-30 10:50:00,54.7,28.2,30.18,South,186,1.1,2.5,36,0.00,,,0.00,535.49,Weather logger V3.0.,2017-04-30 14:50:00,
2017-04-30 10:55:00,54.9,27.7,30.16,ENE,65,5.6,7.4,35,0.00,,,0.00,544.91,Weather logger V3.0.,2017-04-30 14:55:00,
2017-04-30 11:00:00,54.9,27.1,30.17,WSW,258,3.6,4.9,34,0.00,,,0.00,551.91,Weather logger V3.0.,2017-04-30 15:00:00,
2017-04-30 11:05:00,55.2,27.3,30.17,SSE,163,2.7,4.9,34,0.00,,,0.00,555.14,Weather logger V3.0.,2017-04-30 15:05:00,
2017-04-30 11:10:00,55.6,27.7,30.17,ENE,63,2.9,4.9,34,0.00,,,0.00,559.53,Weather logger V3.0.,2017-04-30 15:10:00,
2017-04-30 11:15:00,55.8,27.1,30.17,SSE,156,2.5,4.9,33,0.00,,,0.00,568.83,Weather logger V3.0.,2017-04-30 15:15:00,
2017-04-30 11:21:00,56.1,28.2,30.17,ESE,117,1.3,2.5,34,0.00,,,0.00,571.45,Weather logger V3.0.,2017-04-30 15:21:00,
2017-04-30 11:26:00,56.1,27.5,30.16,South,189,0.0,0.0,33,0.00,,,0.00,579.41,Weather logger V3.0.,2017-04-30 15:26:00,
2017-04-30 11:31:00,56.7,26.4,30.18,South,184,0.0,0.0,31,0.00,,,0.00,595.85,Weather logger V3.0.,2017-04-30 15:31:00,
2017-04-30 11:36:00,57.0,27.5,30.18,SSW,192,1.8,2.5,32,0.00,,,0.00,600.88,Weather logger V3.0.,2017-04-30 15:36:00,
2017-04-30 11:41:00,57.4,27.9,30.17,ESE,115,3.6,4.9,32,0.00,,,0.00,604.03,Weather logger V3.0.,2017-04-30 15:41:00,
2017-04-30 11:46:00,57.4,27.9,30.18,South,191,0.2,2.5,32,0.00,,,0.00,630.00,Weather logger V3.0.,2017-04-30 15:46:00,
2017-04-30 11:51:00,57.7,28.0,30.17,NE,43,4.0,4.9,32,0.00,,,0.00,630.83,Weather logger V3.0.,2017-04-30 15:51:00,
2017-04-30 11:56:00,57.7,28.0,30.18,West,264,2.5,2.5,32,0.00,,,0.00,659.52,Weather logger V3.0.,2017-04-30 15:56:00,
2017-04-30 12:01:00,57.6,28.8,30.18,SW,233,0.0,0.0,33,0.00,,,0.00,405.80,Weather logger V3.0.,2017-04-30 16:01:00,
2017-04-30 12:06:00,57.6,28.0,30.18,WSW,247,3.4,4.9,32,0.00,,,0.00,408.83,Weather logger V3.0.,2017-04-30 16:06:00,
2017-04-30 12:11:00,57.7,27.3,30.19,East,101,0.2,2.5,31,0.00,,,0.00,485.99,Weather logger V3.0.,2017-04-30 16:11:00,
2017-04-30 12:16:00,58.3,27.0,30.18,SE,130,1.1,2.5,30,0.00,,,0.00,427.01,Weather logger V3.0.,2017-04-30 16:16:00,
2017-04-30 12:21:00,58.8,28.2,30.17,ESE,103,2.0,2.5,31,0.00,,,0.00,267.19,Weather logger V3.0.,2017-04-30 16:21:00,
2017-04-30 12:26:00,59.2,27.9,30.17,WSW,246,0.0,0.0,30,0.00,,,0.00,245.80,Weather logger V3.0.,2017-04-30 16:26:00,
2017-04-30 12:32:00,59.5,29.7,30.17,WNW,285,2.7,7.4,32,0.00,,,0.00,323.84,Weather logger V3.0.,2017-04-30 16:32:00,
2017-04-30 12:37:00,59.5,29.7,30.18,North,359,1.1,2.5,32,0.00,,,0.00,478.28,Weather logger V3.0.,2017-04-30 16:37:00,
2017-04-30 12:42:00,59.7,30.6,30.18,SE,130,0.0,0.0,33,0.00,,,0.00,362.18,Weather logger V3.0.,2017-04-30 16:42:00,
2017-04-30 12:47:00,59.4,29.5,30.19,NNW,340,0.9,2.5,32,0.00,,,0.00,231.70,Weather logger V3.0.,2017-04-30 16:47:00,
2017-04-30 12:52:00,59.2,29.3,30.18,ESE,108,2.7,4.9,32,0.00,,,0.00,367.18,Weather logger V3.0.,2017-04-30 16:52:00,
2017-04-30 12:57:00,59.2,29.3,30.17,ENE,67,2.9,4.9,32,0.00,,,0.00,537.18,Weather logger V3.0.,2017-04-30 16:57:00,
2017-04-30 13:02:00,59.4,28.8,30.17,NW,305,2.7,4.9,31,0.00,,,0.00,650.61,Weather logger V3.0.,2017-04-30 17:02:00,
2017-04-30 13:07:00,59.5,28.0,30.17,WNW,299,1.1,2.5,30,0.00,,,0.00,421.05,Weather logger V3.0.,2017-04-30 17:07:00,
2017-04-30 13:12:00,59.4,28.8,30.17,ENE,63,1.1,2.5,31,0.00,,,0.00,278.23,Weather logger V3.0.,2017-04-30 17:12:00,
2017-04-30 13:17:00,59.4,31.1,30.19,SSW,192,2.9,4.9,34,0.00,,,0.00,122.85,Weather logger V3.0.,2017-04-30 17:17:00,
2017-04-30 13:22:00,59.5,32.5,30.20,SSW,196,0.2,2.5,36,0.00,,,0.00,91.45,Weather logger V3.0.,2017-04-30 17:22:00,
2017-04-30 13:27:00,59.4,35.8,30.19,South,191,0.0,0.0,41,0.00,,,0.00,98.48,Weather logger V3.0.,2017-04-30 17:27:00,
2017-04-30 13:32:00,58.8,40.3,30.19,SSW,197,2.7,4.9,50,0.00,,,0.00,115.67,Weather logger V3.0.,2017-04-30 17:32:00,
2017-04-30 13:37:00,57.9,45.9,30.19,SSW,194,0.0,0.0,64,0.14,,,0.02,132.09,Weather logger V3.0.,2017-04-30 17:37:00,
2017-04-30 13:42:00,56.7,49.3,30.17,SW,233,0.9,2.5,76,0.21,,,0.04,213.85,Weather logger V3.0.,2017-04-30 17:42:00,
2017-04-30 13:48:00,55.4,49.1,30.19,SSW,197,0.0,0.0,79,0.21,,,0.06,213.01,Weather logger V3.0.,2017-04-30 17:48:00,
2017-04-30 13:53:00,54.3,48.6,30.18,SSW,197,0.4,2.5,81,0.14,,,0.06,312.04,Weather logger V3.0.,2017-04-30 17:53:00,
2017-04-30 13:58:00,53.4,47.1,30.16,South,184,0.0,0.0,79,0.00,,,0.06,236.70,Weather logger V3.0.,2017-04-30 17:58:00,
2017-04-30 14:03:00,52.7,45.0,30.16,SSW,198,0.0,0.0,75,0.00,,,0.06,238.04,Weather logger V3.0.,2017-04-30 18:03:00,
2017-04-30 14:08:00,52.7,45.3,30.15,SSE,152,2.7,4.9,76,0.00,,,0.06,251.66,Weather logger V3.0.,2017-04-30 18:08:00,
2017-04-30 14:13:00,52.9,44.1,30.16,SSW,197,0.9,2.5,72,0.00,,,0.06,284.64,Weather logger V3.0.,2017-04-30 18:13:00,
2017-04-30 14:18:00,53.1,43.5,30.16,South,184,1.8,2.5,70,0.00,,,0.06,338.69,Weather logger V3.0.,2017-04-30 18:18:00,
2017-04-30 14:23:00,53.2,43.3,30.16,SSE,154,3.6,4.9,69,0.00,,,0.06,327.96,Weather logger V3.0.,2017-04-30 18:23:00,